Regional Weather Roundup
Issued by NWS Cleveland, OH

Home | Current Version | Previous Version | Graphics & Text | Print | Product List | Glossary On
Versions: 1 2 3 4 5 6 7 8 9 10 11 12 13 14 15 16 17 18 19 20 21 22 23 24 25 26 27 28 29 30 31 32 33 34 35 36 37 38 39 40 41 42 43 44 45 46 47 48 49 50
000
ASUS41 KCLE 251300
RWRCLE
OHIO REGIONAL WEATHER ROUNDUP
NATIONAL WEATHER SERVICE WILMINGTON, OH
800 AM EST SAT FEB 25 2017

NOTE: "FAIR" INDICATES FEW OR NO CLOUDS BELOW 12,000 FEET WITH NO
SIGNIFICANT WEATHER AND/OR OBSTRUCTIONS TO VISIBILITY.

OHZ001>008-015>018-024>027-034-035-043-044-251400-
   NORTHWEST OHIO

CITY           SKY/WX    TMP DP  RH WIND       PRES   REMARKS
DEFIANCE       CLOUDY    34  30  85 W9        29.61R WCI  27
FINDLAY        CLOUDY    40  31  70 W17G24    29.60R
TOLEDO EXPRESS MOCLDY    38  33  82 SW14      29.57R
TOLEDO EXEC    LGT RAIN  38  34  85 SW16G35   29.59R FOG
LIMA           CLOUDY    38  29  70 W26G37    29.63R
$$

OHZ009>014-019>023-028>033-038-089-251400-
   NORTHEAST OHIO

CITY           SKY/WX    TMP DP  RH WIND       PRES   REMARKS
CLE-HOPKINS    CLOUDY    44  33  65 SW10      29.60R
CLE-LAKEFRONT  CLOUDY    44  34  67 SW13      29.57R
CUY CO. ARPT   MOCLDY    45  36  70 W14       29.57R
LORAIN-ELYRIA  FAIR      42  33  70 W18G30    29.59R
ASHTABULA      CLOUDY    43  40  89 W9        29.56R
AKRON-CANTON   CLOUDY    43  34  70 W9        29.59R
WOOSTER        NOT AVBL
MANSFIELD      FAIR      40  31  70 SW15      29.60R
YOUNGSTOWN     CLOUDY    46  39  76 W15       29.56R
$$

OHZ042-051>053-060>062-070>072-077>081-251400-
  SOUTHWEST OHIO

CITY           SKY/WX    TMP DP  RH WIND       PRES   REMARKS
CINC-COVINGTON CLOUDY    37  26  64 W17G33    29.74R
CINC-LUNKEN    CLOUDY    40  28  62 W23G32    29.76R
HAMILTON       CLOUDY    38  27  64 W18G32    29.75R
DAYTON         NOT AVBL
WRIGHT-PAT AFB CLOUDY    39  31  71 W17G23    29.68R
DAYTON GENERAL CLOUDY    39  31  72 W22G29    29.69R
WILMINGTON     FAIR      40  33  76 SW15      29.67R
$$

OHZ036-037-039>041-045>050-054>059-063>069-073>076-082>088-251400-
  CENTRAL AND SOUTHEAST OHIO

CITY           SKY/WX    TMP DP  RH WIND       PRES   REMARKS
COLUMBUS       MOCLDY    44  33  65 W8        29.65R
OSU AIRPORT    FAIR      40  34  79 SW7       29.65R
BOLTON FIELD   MOCLDY    39  36  87 W8        29.67R
RICKENBACK AFB NOT AVBL
NEWARK         MOCLDY    44  37  76 W9        29.65R
MARION         FAIR      39  31  72 SW14      29.63R
LANCASTER      CLOUDY    44  35  70 W9G21     29.67R
ZANESVILLE     MOCLDY    45  38  76 W7        29.63R
NEW PHILLY     CLOUDY    46  40  79 W8        29.61R
$$



USA.gov is the U.S. government's official web portal to all federal, state and local government web resources and services.